Weather History for Dover AFB, DE

Change the Weather History Date:

Thursday, December 19, 2013

  Actual Average Record
Temperature  
Mean Temperature 40 °F -  
Max Temperature 55 °F 45 °F 68 °F (1984)
Min Temperature 26 °F 28 °F 11 °F (1989)
Degree Days  
Heating Degree Days 24    
Moisture  
Dew Point 30 °F    
Average Humidity 68    
Maximum Humidity 99    
Minimum Humidity 43    
Precipitation  
Precipitation 0.00 in - - ()
Sea Level Pressure  
Sea Level Pressure 30.15 in    
Wind  
Wind Speed 8 mph (South)    
Max Wind Speed 18 mph    
Max Gust Speed 24 mph    
Visibility 10 miles    
Events      
Averages and records for this station are not official NWS values.
T = Trace of Precipitation, MM = Missing Value Source: NWS Daily Summary

Daily Weather History Graph

Daily Weather History Graph

Search for Another Location

Airport:

Trip Planner

Search our weather history database for the weather conditions in past years. The results will help you decide how hot, cold, wet, or windy it might be!

Date:

Astronomy

Dec. 19, 2013 Rise Set
Actual Time 7:16 AM EST 4:41 PM EST
Civil Twilight 6:46 AM EST 5:11 PM EST
Nautical Twilight 6:12 AM EST 5:45 PM EST
Astronomical Twilight 5:40 AM EST 6:18 PM EST
Moon 7:04 PM EST (12/19) 8:34 AM EST (12/19)
Length of Visible Light 10h 25m
Length of Day
9h 25m
Waning Gibbous, 95% of the Moon is Illuminated
Dec 19
Waning Gibbous
Dec 25
Last Quarter
Jan 1
New
Jan 7
First Quarter
Jan 15
Full

Hourly Weather History & Observations

Time (EST) Temp. Windchill Dew Point Humidity Pressure Visibility Wind Dir Wind Speed Gust Speed Precip Events Conditions
12:58 AM 27.3 °F 20.9 °F 24.1 °F 88% 30.22 in 10.0 mi South 5.8 mph - N/A   Clear
1:58 AM 29.3 °F 25.6 °F 24.6 °F 83% 30.22 in 10.0 mi South 3.5 mph - N/A   Clear
2:58 AM 28.0 °F 22.8 °F 24.3 °F 86% 30.22 in 10.0 mi SE 4.6 mph - N/A   Clear
3:58 AM 28.6 °F 22.4 °F 24.1 °F 83% 30.20 in 10.0 mi SSE 5.8 mph - N/A   Clear
4:58 AM 27.1 °F 21.8 °F 25.2 °F 92% 30.21 in 10.0 mi SSW 4.6 mph - N/A   Clear
5:58 AM 26.8 °F 20.2 °F 26.4 °F 99% 30.19 in 10.0 mi South 5.8 mph - N/A   Clear
6:58 AM 27.5 °F 19.3 °F 27.3 °F 99% 30.19 in 10.0 mi South 8.1 mph - N/A   Clear
7:58 AM 31.1 °F 25.4 °F 30.9 °F 99% 30.18 in 10.0 mi South 5.8 mph - N/A   Clear
8:58 AM 36.7 °F 28.0 °F 33.3 °F 87% 30.17 in 10.0 mi SSW 13.8 mph - N/A   Clear
9:58 AM 41.4 °F 33.6 °F 33.8 °F 74% 30.17 in 10.0 mi South 15.0 mph - N/A   Partly Cloudy
10:58 AM 47.3 °F - 31.3 °F 54% 30.15 in 10.0 mi SSW 18.4 mph 24.2 mph N/A   Clear
11:58 AM 49.6 °F - 30.4 °F 48% 30.12 in 10.0 mi SW 13.8 mph - N/A   Clear
12:58 PM 53.1 °F - 31.6 °F 44% 30.10 in 10.0 mi SW 10.4 mph - N/A   Clear
1:58 PM 53.6 °F - 32.0 °F 44% 30.09 in 10.0 mi SW 15.0 mph - N/A   Clear
2:58 PM 55.6 °F - 33.4 °F 43% 30.09 in 10.0 mi SW 12.7 mph - N/A   Clear
3:58 PM 53.4 °F - 33.1 °F 46% 30.10 in 10.0 mi South 8.1 mph - N/A   Clear
4:58 PM 49.6 °F - 32.9 °F 53% 30.11 in 10.0 mi South 6.9 mph - N/A   Clear
5:58 PM 46.2 °F 42.2 °F 33.1 °F 60% 30.13 in 10.0 mi South 8.1 mph - N/A   Clear
6:58 PM 44.8 °F 39.9 °F 32.2 °F 61% 30.14 in 10.0 mi South 9.2 mph - N/A   Clear
7:58 PM 47.1 °F - 33.1 °F 58% 30.13 in 10.0 mi SSW 12.7 mph - N/A   Partly Cloudy
8:58 PM 47.8 °F - 32.7 °F 56% 30.13 in 10.0 mi South 12.7 mph - N/A   Clear
9:58 PM 46.9 °F - 33.1 °F 59% 30.14 in 10.0 mi South 11.5 mph - N/A   Clear
10:58 PM 45.7 °F 41.5 °F 33.3 °F 62% 30.14 in 10.0 mi SSW 8.1 mph - N/A   Partly Cloudy
11:58 PM 44.4 °F 40.0 °F 33.4 °F 65% 30.13 in 10.0 mi South 8.1 mph - N/A   Clear